sat.trackr.live / text

‹ back to catalog

STARLINK-34007

NORAD 63868 · 2025-094E

PAYLOAD ACTIVE UNKNOWN

§ Identity

Operator
Country
US
Launch date
2025-05-10
Launch site
AFWTR
Launch vehicle
Mass (kg)
RCS (m²)

Purposes: comms

External: N2YO · Heavens-Above · Gunter

§ Orbital elements

Epoch: 2026-05-25T03:52:58.209312Z

Period
96.11 min
Inclination
70.0024°
Eccentricity
0.0002411
Mean motion
14.98329751 rev/d
Perigee alt
570.4 km
Apogee alt
573.7 km
Semi-major
6,950.2 km
B*
-1.7742e-4
RAAN
41.8242°
Arg perigee
260.3913°
Mean anomaly
99.6973°
Rev number
5,865

§ Raw data

STARLINK-340071 63868U 25094E   26145.16178483 -.00002209  00000+0 -17742-3 0  99952 63868  70.0024  41.8242 0002411 260.3913  99.6973 14.98329751 58655

JSON: /api/v1/satellites/63868 · /tle

For live sub-satellite position, see the globe view (requires WebGL).

§ Visibility from observer

Set your observer location to see the next 7 days of passes ≥ 10°. The values pass through the URL so the page stays shareable.

No JS? Fill the form by hand. The geolocation button needs JavaScript.